Location: Island Grove Observatory.
(44.2333°N, 79.4500°W)
Time: 13:51:48
(UTC-05:00)

ISS - Visible Passes

Search period start: 07 December 2021 00:00
Search period end: 17 December 2021 00:00
Orbit: 417 x 422 km, 51.6° (Epoch: 07 December)

Date Brightness Start Highest point End Pass type
(mag) Time Alt. Az. Time Alt. Az. Time Alt. Az.
07 Dec -3.6 17:27:25 10° WNW 17:30:48 81° SW 17:34:11 10° SE visible
07 Dec -0.6 19:05:52 10° WSW 19:07:07 12° SW 19:08:22 10° SSW visible
08 Dec -0.9 18:17:27 10° W 18:19:55 19° SW 18:22:23 10° S visible
09 Dec -1.6 17:29:39 10° WNW 17:32:40 30° SW 17:35:41 10° SSE visible
11 Dec -0.1 17:33:06 10° WSW 17:34:18 11° SW 17:35:29 10° SSW visible
16 Dec -0.4 07:07:17 10° S 07:09:16 15° SE 07:11:16 10° E visible
